| time (UTC) | temp F | wind direction | speed knots | gust knots | rain 1hr in | rain 24hr in | rain mn in | humidity % | barometer mb |
| 20260505164512 | 48 | 312 | 7.8 | 13.0 | 0.00 | 0.00 | 0.00 | 41 | 1011.7 |
| 20260505164007 | 48 | 310 | 7.8 | 13.0 | 0.00 | 0.00 | 0.00 | 42 | 1011.7 |
| 20260505163506 | 47 | 338 | 6.1 | 13.0 | 0.00 | 0.00 | 0.00 | 40 | 1011.7 |
| 20260505163024 | 47 | 250 | 6.1 | 13.9 | 0.00 | 0.00 | 0.00 | 44 | 1011.7 |
| 20260505162511 | 46 | 257 | 7.8 | 15.6 | 0.00 | 0.00 | 0.00 | 44 | 1011.7 |
| 20260505162009 | 47 | 257 | 9.6 | 15.6 | 0.00 | 0.00 | 0.00 | 41 | 1011.7 |
| 20260505161538 | 47 | 265 | 7.8 | 13.9 | 0.00 | 0.00 | 0.00 | 40 | 1011.7 |
| 20260505161003 | 48 | 261 | 5.2 | 17.4 | 0.00 | 0.00 | 0.00 | 42 | 1011.6 |
| 20260505160505 | 49 | 257 | 10.4 | 17.4 | 0.00 | 0.00 | 0.00 | 40 | 1011.7 |
| 20260505153021 | 46 | 347 | 6.1 | 14.8 | 0.00 | 0.00 | 0.00 | 44 | 1011.6 |
| 20260505152508 | 46 | 236 | 7.8 | 14.8 | 0.00 | 0.00 | 0.00 | 45 | 1011.6 |
| 20260505152010 | 46 | 311 | 7.0 | 13.0 | 0.00 | 0.00 | 0.00 | 44 | 1011.6 |
| 20260505151516 | 46 | 270 | 6.1 | 11.3 | 0.00 | 0.00 | 0.00 | 46 | 1011.7 |
| 20260505151006 | 45 | 306 | 6.1 | 11.3 | 0.00 | 0.00 | 0.00 | 44 | 1011.6 |
| 20260505150506 | 45 | 286 | 5.2 | 10.4 | 0.00 | 0.00 | 0.00 | 45 | 1011.6 |
| 20260505140508 | 42 | 338 | 2.6 | 10.4 | 0.00 | 0.00 | 0.00 | 47 | 1011.2 |
| 20260505125003 | 39 | 317 | 7.0 | 11.3 | 0.00 | 0.00 | 0.00 | 54 | 1010.6 |
| 20260505124509 | 39 | 277 | 5.2 | 11.3 | 0.00 | 0.00 | 0.00 | 55 | 1010.5 |
| 20260505124002 | 38 | 324 | 5.2 | 11.3 | 0.00 | 0.00 | 0.00 | 55 | 1010.4 |
| 20260505123502 | 38 | 306 | 5.2 | 11.3 | 0.00 | 0.00 | 0.00 | 57 | 1010.4 |
| 20260505123003 | 38 | 289 | 2.6 | 9.6 | 0.00 | 0.00 | 0.00 | 58 | 1010.2 |
| 20260505122503 | 38 | 316 | 3.5 | 9.6 | 0.00 | 0.00 | 0.00 | 60 | 1010.1 |
| 20260505122004 | 37 | 234 | 3.5 | 9.6 | 0.00 | 0.00 | 0.00 | 61 | 1010.1 |
| 20260505121529 | 37 | 302 | 2.6 | 8.7 | 0.00 | 0.00 | 0.00 | 62 | 1010.0 |
| 20260505121003 | 36 | 309 | 1.7 | 8.7 | 0.00 | 0.00 | 0.00 | 64 | 1010.0 |
| 20260505120502 | 36 | 334 | 1.7 | 8.7 | 0.00 | 0.00 | 0.00 | 65 | 1009.8 |
| 20260505120015 | 36 | 312 | 2.6 | 7.8 | 0.00 | 0.00 | 0.00 | 66 | 1009.8 |
| 20260505115502 | 36 | 305 | 2.6 | 7.0 | 0.00 | 0.00 | 0.00 | 67 | 1009.7 |
| 20260505115003 | 36 | 16 | 2.6 | 10.4 | 0.00 | 0.00 | 0.00 | 68 | 1009.7 |
| 20260505114503 | 35 | 43 | 4.3 | 10.4 | 0.00 | 0.00 | 0.00 | 68 | 1009.6 |
| 20260505114004 | 35 | 13 | 1.7 | 6.1 | 0.00 | 0.00 | 0.00 | 69 | 1009.5 |
| 20260505113503 | 35 | 338 | 2.6 | 7.0 | 0.00 | 0.00 | 0.00 | 69 | 1009.3 |
| 20260505113008 | 35 | 313 | 1.7 | 7.0 | 0.00 | 0.00 | 0.00 | 70 | 1009.1 |
| 20260505112505 | 35 | 51 | 3.5 | 7.0 | 0.00 | 0.00 | 0.00 | 70 | 1009.1 |
| 20260505112007 | 36 | 277 | 2.6 | 6.1 | 0.00 | 0.00 | 0.00 | 70 | 1009.0 |
| 20260505111506 | 36 | 265 | 0.9 | 7.0 | 0.00 | 0.00 | 0.00 | 70 | 1009.0 |
| 20260505111008 | 36 | 249 | 3.5 | 7.8 | 0.00 | 0.00 | 0.00 | 69 | 1008.9 |
| 20260505110510 | 36 | 297 | 2.6 | 7.8 | 0.00 | 0.00 | 0.00 | 69 | 1008.9 |
| 20260505102006 | 37 | 282 | 1.7 | 6.1 | 0.00 | 0.00 | 0.00 | 66 | 1008.5 |
| 20260505101520 | 37 | 309 | 1.7 | 4.3 | 0.00 | 0.00 | 0.00 | 66 | 1008.5 |
| 20260505101009 | 37 | 314 | 1.7 | 7.0 | 0.00 | 0.00 | 0.00 | 65 | 1008.6 |
| 20260505100503 | 37 | 277 | 2.6 | 7.0 | 0.00 | 0.00 | 0.00 | 65 | 1008.6 |
| 20260505100017 | 37 | 309 | 3.5 | 7.8 | 0.00 | 0.00 | 0.00 | 65 | 1008.5 |
| 20260505095510 | 37 | 311 | 4.3 | 8.7 | 0.00 | 0.00 | 0.00 | 65 | 1008.6 |
| 20260505095004 | 38 | 301 | 3.5 | 8.7 | 0.00 | 0.00 | 0.00 | 64 | 1008.6 |
| 20260505094507 | 38 | 268 | 4.3 | 8.7 | 0.00 | 0.00 | 0.00 | 64 | 1008.6 |
| 20260505094007 | 38 | 297 | 3.5 | 8.7 | 0.00 | 0.00 | 0.00 | 64 | 1008.5 |
| 20260505093504 | 38 | 309 | 3.5 | 8.7 | 0.00 | 0.00 | 0.00 | 64 | 1008.4 |
| 20260505093008 | 38 | 250 | 2.6 | 12.2 | 0.00 | 0.00 | 0.00 | 64 | 1008.3 |
| 20260505092504 | 38 | 9 | 4.3 | 12.2 | 0.00 | 0.00 | 0.00 | 63 | 1008.2 |
| 20260505092007 | 38 | 333 | 3.5 | 9.6 | 0.00 | 0.00 | 0.00 | 63 | 1008.2 |
| 20260505091520 | 38 | 332 | 2.6 | 9.6 | 0.00 | 0.00 | 0.00 | 62 | 1008.1 |
| 20260505091006 | 38 | 306 | 2.6 | 8.7 | 0.00 | 0.00 | 0.00 | 62 | 1008.1 |
| 20260505090506 | 38 | 300 | 4.3 | 8.7 | 0.00 | 0.00 | 0.00 | 62 | 1008.1 |
| 20260505090037 | 38 | 307 | 4.3 | 10.4 | 0.00 | 0.00 | 0.00 | 61 | 1008.0 |
| 20260505085503 | 38 | 309 | 5.2 | 10.4 | 0.00 | 0.00 | 0.00 | 61 | 1008.0 |
| 20260505085005 | 38 | 304 | 5.2 | 12.2 | 0.00 | 0.00 | 0.00 | 61 | 1007.9 |
| 20260505084510 | 38 | 288 | 5.2 | 12.2 | 0.00 | 0.00 | 0.00 | 61 | 1007.9 |
| 20260505084004 | 38 | 289 | 4.3 | 10.4 | 0.00 | 0.00 | 0.00 | 62 | 1007.9 |
| 20260505083504 | 38 | 303 | 6.1 | 10.4 | 0.00 | 0.00 | 0.00 | 62 | 1007.7 |
| 20260505083018 | 38 | 250 | 5.2 | 11.3 | 0.00 | 0.00 | 0.00 | 63 | 1007.7 |
| 20260505082510 | 38 | 293 | 4.3 | 11.3 | 0.00 | 0.00 | 0.00 | 63 | 1007.6 |
| 20260505082008 | 38 | 273 | 6.1 | 11.3 | 0.00 | 0.00 | 0.00 | 64 | 1007.6 |
| 20260505081513 | 38 | 268 | 4.3 | 9.6 | 0.00 | 0.00 | 0.00 | 64 | 1007.6 |
| 20260505081008 | 38 | 292 | 5.2 | 7.8 | 0.00 | 0.00 | 0.00 | 65 | 1007.6 |
| 20260505080508 | 38 | 281 | 5.2 | 9.6 | 0.00 | 0.00 | 0.00 | 65 | 1007.6 |
| 20260505080032 | 38 | 273 | 3.5 | 9.6 | 0.00 | 0.00 | 0.00 | 65 | 1007.5 |
| 20260505075506 | 38 | 295 | 3.5 | 7.8 | 0.00 | 0.00 | 0.00 | 65 | 1007.5 |
| 20260505075003 | 38 | 271 | 2.6 | 7.0 | 0.00 | 0.00 | 0.00 | 65 | 1007.3 |
| 20260505074510 | 38 | 288 | 2.6 | 7.0 | 0.00 | 0.00 | 0.00 | 66 | 1007.3 |
| 20260505074004 | 38 | 261 | 2.6 | 7.8 | 0.00 | 0.00 | 0.00 | 66 | 1007.4 |
| 20260505073505 | 38 | 259 | 4.3 | 7.8 | 0.00 | 0.00 | 0.00 | 66 | 1007.5 |
| 20260505073028 | 38 | 272 | 3.5 | 7.8 | 0.00 | 0.00 | 0.00 | 66 | 1007.4 |
| 20260505072502 | 38 | 332 | 4.3 | 7.8 | 0.00 | 0.00 | 0.00 | 66 | 1007.3 |
| 20260505072010 | 38 | 217 | 2.6 | 7.8 | 0.00 | 0.00 | 0.00 | 66 | 1007.4 |
| 20260505071532 | 38 | 257 | 2.6 | 6.1 | 0.00 | 0.00 | 0.00 | 66 | 1007.4 |
| 20260505071010 | 38 | 242 | 2.6 | 6.1 | 0.00 | 0.00 | 0.00 | 66 | 1007.5 |
| 20260505070504 | 38 | 242 | 2.6 | 6.1 | 0.00 | 0.00 | 0.00 | 66 | 1007.5 |
| 20260505070024 | 38 | 250 | 2.6 | 7.8 | 0.00 | 0.00 | 0.00 | 66 | 1007.5 |
| 20260505065509 | 38 | 304 | 3.5 | 7.8 | 0.00 | 0.00 | 0.00 | 65 | 1007.6 |
| 20260505065003 | 38 | 281 | 3.5 | 7.8 | 0.00 | 0.00 | 0.00 | 65 | 1007.6 |
| 20260505064510 | 38 | 296 | 2.6 | 6.1 | 0.00 | 0.00 | 0.00 | 64 | 1007.6 |
| 20260505064006 | 38 | 273 | 1.7 | 4.3 | 0.00 | 0.00 | 0.00 | 64 | 1007.5 |
| 20260505063504 | 38 | 275 | 2.6 | 6.1 | 0.00 | 0.00 | 0.00 | 63 | 1007.5 |
| 20260505063012 | 38 | 304 | 1.7 | 6.1 | 0.00 | 0.00 | 0.00 | 63 | 1007.5 |
| 20260505062507 | 38 | 301 | 2.6 | 5.2 | 0.00 | 0.00 | 0.00 | 63 | 1007.6 |
| 20260505062007 | 39 | 249 | 2.6 | 7.8 | 0.00 | 0.00 | 0.00 | 63 | 1007.5 |
| 20260505061528 | 39 | 273 | 4.3 | 7.8 | 0.00 | 0.00 | 0.00 | 63 | 1007.6 |
| 20260505061006 | 39 | 277 | 3.5 | 7.0 | 0.00 | 0.00 | 0.00 | 63 | 1007.6 |
| 20260505060509 | 39 | 255 | 4.3 | 7.0 | 0.00 | 0.00 | 0.00 | 62 | 1007.6 |
| 20260505060034 | 39 | 272 | 2.6 | 7.0 | 0.00 | 0.00 | 0.00 | 62 | 1007.7 |
| 20260505055504 | 39 | 257 | 2.6 | 7.0 | 0.00 | 0.00 | 0.00 | 62 | 1007.6 |
| 20260505055004 | 39 | 242 | 2.6 | 7.0 | 0.00 | 0.00 | 0.00 | 62 | 1007.4 |
| 20260505054516 | 39 | 221 | 2.6 | 7.0 | 0.00 | 0.00 | 0.00 | 62 | 1007.4 |
| 20260505054006 | 39 | 236 | 1.7 | 7.0 | 0.00 | 0.00 | 0.00 | 61 | 1007.3 |
| 20260505053506 | 40 | 247 | 2.6 | 7.0 | 0.00 | 0.00 | 0.00 | 60 | 1007.4 |
| 20260505053025 | 40 | 241 | 2.6 | 8.7 | 0.00 | 0.00 | 0.00 | 60 | 1007.4 |
| 20260505052507 | 40 | 265 | 4.3 | 8.7 | 0.00 | 0.00 | 0.00 | 59 | 1007.4 |
| 20260505052008 | 40 | 236 | 2.6 | 6.1 | 0.00 | 0.00 | 0.00 | 59 | 1007.3 |
| 20260505051518 | 40 | 234 | 2.6 | 6.1 | 0.00 | 0.00 | 0.00 | 58 | 1007.3 |
| 20260505051013 | 40 | 245 | 2.6 | 6.1 | 0.00 | 0.00 | 0.00 | 58 | 1007.2 |
| 20260505050510 | 40 | 257 | 2.6 | 6.1 | 0.00 | 0.00 | 0.00 | 58 | 1007.2 |
| 20260505041509 | 42 | 243 | 2.6 | 7.0 | 0.00 | 0.00 | 0.00 | 55 | 1007.2 |
| 20260505041003 | 42 | 243 | 2.6 | 7.0 | 0.00 | 0.00 | 0.00 | 54 | 1007.1 |
| 20260505040503 | 42 | 254 | 2.6 | 7.8 | 0.00 | 0.00 | 0.00 | 54 | 1007.2 |
| 20260505040004 | 42 | 261 | 4.3 | 7.8 | 0.00 | 0.00 | 0.00 | 53 | 1007.2 |
| 20260505035508 | 42 | 275 | 3.5 | 7.0 | 0.00 | 0.00 | 0.00 | 53 | 1007.1 |
| 20260505035008 | 42 | 255 | 2.6 | 7.0 | 0.00 | 0.00 | 0.00 | 53 | 1007.1 |
| 20260505034503 | 42 | 241 | 2.6 | 7.0 | 0.00 | 0.00 | 0.00 | 53 | 1007.0 |
| 20260505034004 | 42 | 257 | 2.6 | 6.1 | 0.00 | 0.00 | 0.00 | 53 | 1006.9 |
| 20260505033503 | 42 | 238 | 2.6 | 6.1 | 0.00 | 0.00 | 0.00 | 53 | 1006.9 |
| 20260505033005 | 42 | 236 | 2.6 | 7.0 | 0.00 | 0.00 | 0.00 | 52 | 1007.0 |
| 20260505032503 | 42 | 242 | 3.5 | 7.0 | 0.00 | 0.00 | 0.00 | 52 | 1007.0 |
| 20260505032005 | 43 | 249 | 3.5 | 6.1 | 0.00 | 0.00 | 0.00 | 52 | 1007.0 |
| 20260505031506 | 43 | 247 | 3.5 | 7.0 | 0.00 | 0.00 | 0.00 | 51 | 1007.0 |
| 20260505031005 | 43 | 250 | 2.6 | 7.0 | 0.00 | 0.00 | 0.00 | 51 | 1007.0 |
| 20260505030504 | 43 | 236 | 2.6 | 6.1 | 0.00 | 0.00 | 0.00 | 50 | 1007.0 |
| 20260505030012 | 43 | 236 | 1.7 | 6.1 | 0.00 | 0.00 | 0.00 | 50 | 1007.0 |
| 20260505025504 | 44 | 259 | 2.6 | 6.1 | 0.00 | 0.00 | 0.00 | 50 | 1006.9 |
| 20260505025004 | 44 | 265 | 1.7 | 6.1 | 0.00 | 0.00 | 0.00 | 49 | 1006.8 |
| 20260505024507 | 44 | 245 | 2.6 | 6.1 | 0.00 | 0.00 | 0.00 | 49 | 1006.8 |
| 20260505024008 | 44 | 277 | 1.7 | 6.1 | 0.00 | 0.00 | 0.00 | 49 | 1006.8 |
| 20260505023503 | 44 | 245 | 3.5 | 7.8 | 0.00 | 0.00 | 0.00 | 48 | 1006.7 |
| 20260505023003 | 45 | 277 | 3.5 | 7.8 | 0.00 | 0.00 | 0.00 | 48 | 1006.6 |
| 20260505022503 | 45 | 265 | 3.5 | 6.1 | 0.00 | 0.00 | 0.00 | 48 | 1006.6 |
| 20260505022006 | 45 | 272 | 2.6 | 6.1 | 0.00 | 0.00 | 0.00 | 47 | 1006.5 |
| 20260505021503 | 45 | 250 | 2.6 | 7.8 | 0.00 | 0.00 | 0.00 | 47 | 1006.5 |
| 20260505021003 | 45 | 232 | 3.5 | 7.8 | 0.00 | 0.00 | 0.00 | 46 | 1006.4 |
| 20260505020504 | 46 | 242 | 4.3 | 11.3 | 0.00 | 0.00 | 0.00 | 46 | 1006.3 |
| 20260505020017 | 46 | 291 | 5.2 | 11.3 | 0.00 | 0.00 | 0.00 | 45 | 1006.3 |
| 20260505015504 | 46 | 294 | 5.2 | 13.9 | 0.00 | 0.00 | 0.00 | 46 | 1006.4 |
| 20260505015004 | 46 | 279 | 4.3 | 13.9 | 0.00 | 0.00 | 0.00 | 44 | 1006.2 |
| 20260505014531 | 46 | 287 | 7.0 | 11.3 | 0.00 | 0.00 | 0.00 | 44 | 1006.2 |
| 20260505014003 | 47 | 295 | 4.3 | 11.3 | 0.00 | 0.00 | 0.00 | 44 | 1006.3 |
| 20260505013504 | 47 | 279 | 4.3 | 15.6 | 0.00 | 0.00 | 0.00 | 43 | 1006.1 |
| 20260505013004 | 47 | 241 | 6.1 | 19.1 | 0.00 | 0.00 | 0.00 | 43 | 1006.0 |
| 20260505012504 | 47 | 272 | 7.0 | 20.9 | 0.00 | 0.00 | 0.00 | 42 | 1005.9 |
| 20260505012004 | 48 | 266 | 9.6 | 20.9 | 0.00 | 0.00 | 0.00 | 43 | 1005.7 |
| 20260505011507 | 48 | 302 | 9.6 | 20.0 | 0.00 | 0.00 | 0.00 | 43 | 1005.6 |
| 20260505011006 | 48 | 279 | 8.7 | 18.2 | 0.00 | 0.00 | 0.00 | 43 | 1005.6 |
| 20260505010503 | 49 | 293 | 10.4 | 22.6 | 0.00 | 0.00 | 0.00 | 43 | 1005.6 |
| 20260505010007 | 49 | 267 | 9.6 | 22.6 | 0.00 | 0.00 | 0.00 | 43 | 1005.5 |
| 20260505005504 | 49 | 296 | 9.6 | 20.9 | 0.00 | 0.00 | 0.00 | 43 | 1005.5 |
| 20260505005008 | 50 | 303 | 9.6 | 20.9 | 0.00 | 0.00 | 0.00 | 43 | 1005.1 |
| 20260505004513 | 50 | 293 | 9.6 | 21.7 | 0.00 | 0.00 | 0.00 | 42 | 1005.1 |
| 20260505004006 | 50 | 273 | 13.0 | 23.5 | 0.00 | 0.00 | 0.00 | 42 | 1004.9 |
| 20260505003504 | 50 | 294 | 13.0 | 23.5 | 0.00 | 0.00 | 0.00 | 41 | 1004.9 |
| 20260505003006 | 51 | 293 | 11.3 | 22.6 | 0.00 | 0.00 | 0.00 | 41 | 1004.9 |
| 20260505002504 | 51 | 263 | 9.6 | 22.6 | 0.00 | 0.00 | 0.00 | 41 | 1004.8 |
| 20260505002004 | 51 | 257 | 11.3 | 21.7 | 0.00 | 0.00 | 0.00 | 40 | 1004.7 |
| 20260505001513 | 51 | 232 | 9.6 | 21.7 | 0.00 | 0.00 | 0.00 | 41 | 1004.6 |
| 20260505001004 | 51 | 275 | 11.3 | 17.4 | 0.00 | 0.00 | 0.00 | 42 | 1004.5 |
| 20260505000505 | 51 | 259 | 10.4 | 20.0 | 0.00 | 0.00 | 0.00 | 42 | 1004.6 |
| 20260505000017 | 51 | 240 | 9.6 | 20.0 | 0.00 | 0.00 | 0.00 | 40 | 1004.5 |
| 20260504235507 | 51 | 273 | 9.6 | 19.1 | 0.00 | 0.00 | 0.00 | 42 | 1004.4 |
| 20260504235004 | 51 | 287 | 10.4 | 19.1 | 0.00 | 0.00 | 0.00 | 42 | 1004.4 |
| 20260504234511 | 52 | 255 | 11.3 | 19.1 | 0.00 | 0.00 | 0.00 | 40 | 1004.5 |
| 20260504234011 | 52 | 273 | 12.2 | 22.6 | 0.00 | 0.00 | 0.00 | 40 | 1004.5 |
| 20260504233504 | 52 | 309 | 10.4 | 22.6 | 0.00 | 0.00 | 0.00 | 39 | 1004.3 |
| 20260504233007 | 53 | 289 | 10.4 | 24.3 | 0.00 | 0.00 | 0.00 | 42 | 1004.3 |
| 20260504232506 | 53 | 287 | 11.3 | 24.3 | 0.00 | 0.00 | 0.00 | 41 | 1004.2 |
| 20260504232006 | 53 | 277 | 10.4 | 19.1 | 0.00 | 0.00 | 0.00 | 39 | 1004.0 |
| 20260504231508 | 53 | 249 | 9.6 | 23.5 | 0.00 | 0.00 | 0.00 | 41 | 1004.0 |
| 20260504231007 | 53 | 284 | 10.4 | 23.5 | 0.00 | 0.00 | 0.00 | 40 | 1004.0 |
| 20260504230508 | 53 | 270 | 12.2 | 23.5 | 0.00 | 0.00 | 0.00 | 42 | 1003.9 |
| 20260504230023 | 53 | 312 | 8.7 | 23.5 | 0.00 | 0.00 | 0.00 | 40 | 1003.9 |
| 20260504225504 | 53 | 314 | 13.0 | 23.5 | 0.00 | 0.00 | 0.00 | 40 | 1003.7 |
| 20260504225008 | 54 | 275 | 11.3 | 23.5 | 0.00 | 0.00 | 0.00 | 39 | 1003.7 |
| 20260504224525 | 55 | 275 | 13.0 | 23.5 | 0.00 | 0.00 | 0.00 | 40 | 1003.7 |
| 20260504224003 | 55 | 344 | 12.2 | 22.6 | 0.00 | 0.00 | 0.00 | 40 | 1003.3 |
| 20260504223507 | 55 | 271 | 8.7 | 25.2 | 0.00 | 0.00 | 0.00 | 40 | 1003.5 |
| 20260504223010 | 55 | 268 | 10.4 | 25.2 | 0.00 | 0.00 | 0.00 | 41 | 1003.4 |
| 20260504222505 | 55 | 311 | 9.6 | 21.7 | 0.00 | 0.00 | 0.00 | 40 | 1003.2 |
| 20260504222005 | 56 | 341 | 12.2 | 23.5 | 0.00 | 0.00 | 0.00 | 39 | 1003.1 |
| 20260504221516 | 57 | 265 | 10.4 | 23.5 | 0.00 | 0.00 | 0.00 | 39 | 1003.0 |
| 20260504221006 | 57 | 300 | 9.6 | 22.6 | 0.00 | 0.00 | 0.00 | 39 | 1002.9 |
| 20260504220507 | 57 | 275 | 11.3 | 26.1 | 0.00 | 0.00 | 0.00 | 39 | 1002.7 |
| 20260504220014 | 57 | 263 | 13.9 | 26.1 | 0.00 | 0.00 | 0.00 | 38 | 1002.7 |
| 20260504215508 | 57 | 323 | 12.2 | 26.1 | 0.00 | 0.00 | 0.00 | 40 | 1002.5 |
| 20260504215008 | 58 | 279 | 15.6 | 26.1 | 0.00 | 0.00 | 0.00 | 38 | 1002.6 |
| 20260504214511 | 57 | 332 | 11.3 | 23.5 | 0.00 | 0.00 | 0.00 | 38 | 1002.5 |
| 20260504214007 | 57 | 83 | 7.8 | 20.9 | 0.00 | 0.00 | 0.00 | 40 | 1002.4 |
| 20260504213505 | 57 | 292 | 10.4 | 25.2 | 0.00 | 0.00 | 0.00 | 38 | 1002.4 |
| 20260504213016 | 58 | 319 | 14.8 | 26.1 | 0.00 | 0.00 | 0.00 | 39 | 1002.3 |
| 20260504212507 | 58 | 315 | 13.9 | 26.1 | 0.00 | 0.00 | 0.00 | 38 | 1002.4 |
| 20260504212011 | 58 | 290 | 15.6 | 25.2 | 0.00 | 0.00 | 0.00 | 37 | 1002.1 |
| 20260504211518 | 58 | 306 | 10.4 | 26.9 | 0.00 | 0.00 | 0.00 | 40 | 1002.1 |
| 20260504211002 | 59 | 284 | 11.3 | 26.9 | 0.00 | 0.00 | 0.00 | 37 | 1002.1 |
| 20260504210506 | 60 | 252 | 10.4 | 25.2 | 0.00 | 0.00 | 0.00 | 40 | 1001.9 |
| 20260504210035 | 60 | 291 | 12.2 | 25.2 | 0.00 | 0.00 | 0.00 | 39 | 1002.0 |
| 20260504205509 | 60 | 279 | 11.3 | 26.9 | 0.00 | 0.00 | 0.00 | 39 | 1001.9 |
| 20260504205006 | 61 | 289 | 14.8 | 26.9 | 0.00 | 0.00 | 0.00 | 36 | 1001.9 |
| 20260504204529 | 61 | 237 | 8.7 | 25.2 | 0.00 | 0.00 | 0.00 | 39 | 1001.8 |
| 20260504204005 | 60 | 306 | 8.7 | 25.2 | 0.00 | 0.00 | 0.00 | 40 | 1001.8 |
| 20260504203503 | 60 | 303 | 10.4 | 23.5 | 0.00 | 0.00 | 0.00 | 39 | 1001.7 |
| 20260504203021 | 59 | 289 | 9.6 | 26.1 | 0.00 | 0.00 | 0.00 | 40 | 1001.7 |
| 20260504202506 | 59 | 230 | 14.8 | 26.1 | 0.00 | 0.00 | 0.00 | 38 | 1001.6 |
| 20260504202006 | 60 | 308 | 10.4 | 23.5 | 0.00 | 0.00 | 0.00 | 39 | 1001.6 |
| 20260504201512 | 59 | 259 | 13.9 | 26.1 | 0.00 | 0.00 | 0.00 | 39 | 1001.5 |
| 20260504201006 | 60 | 269 | 15.6 | 29.5 | 0.00 | 0.00 | 0.00 | 40 | 1001.7 |
| 20260504200509 | 60 | 301 | 11.3 | 29.5 | 0.00 | 0.00 | 0.00 | 39 | 1001.6 |
| 20260504200003 | 61 | 275 | 9.6 | 24.3 | 0.00 | 0.00 | 0.00 | 42 | 1001.5 |
| 20260504195502 | 61 | 286 | 13.0 | 26.1 | 0.00 | 0.00 | 0.00 | 38 | 1001.4 |
| 20260504195003 | 60 | 307 | 10.4 | 26.1 | 0.00 | 0.00 | 0.00 | 38 | 1001.4 |
| 20260504194508 | 60 | 296 | 11.3 | 26.1 | 0.00 | 0.00 | 0.00 | 39 | 1001.5 |
| 20260504194002 | 59 | 286 | 10.4 | 26.1 | 0.00 | 0.00 | 0.00 | 41 | 1001.5 |
| 20260504193504 | 59 | 257 | 13.0 | 24.3 | 0.00 | 0.00 | 0.00 | 39 | 1001.4 |
| 20260504193006 | 60 | 234 | 10.4 | 22.6 | 0.00 | 0.00 | 0.00 | 40 | 1001.2 |
| 20260504192502 | 60 | 275 | 13.0 | 21.7 | 0.00 | 0.00 | 0.00 | 40 | 1001.3 |
| 20260504192006 | 61 | 252 | 10.4 | 26.1 | 0.00 | 0.00 | 0.00 | 41 | 1001.2 |
| 20260504191522 | 60 | 273 | 14.8 | 26.1 | 0.00 | 0.00 | 0.00 | 38 | 1001.0 |
| 20260504191003 | 60 | 291 | 13.0 | 21.7 | 0.00 | 0.00 | 0.00 | 37 | 1001.0 |
| 20260504190506 | 61 | 147 | 13.0 | 21.7 | 0.00 | 0.00 | 0.00 | 37 | 1001.1 |
| 20260504190006 | 61 | 310 | 8.7 | 26.1 | 0.00 | 0.00 | 0.00 | 40 | 1001.0 |
| 20260504185502 | 60 | 249 | 11.3 | 26.1 | 0.00 | 0.00 | 0.00 | 39 | 1000.9 |
| 20260504185002 | 61 | 232 | 14.8 | 25.2 | 0.00 | 0.00 | 0.00 | 37 | 1000.8 |
| 20260504184510 | 60 | 279 | 13.0 | 25.2 | 0.00 | 0.00 | 0.00 | 38 | 1000.8 |
| 20260504184006 | 60 | 314 | 11.3 | 20.9 | 0.00 | 0.00 | 0.00 | 39 | 1000.8 |
| 20260504183506 | 58 | 262 | 10.4 | 24.3 | 0.00 | 0.00 | 0.00 | 42 | 1000.9 |
| 20260504183014 | 58 | 259 | 15.6 | 24.3 | 0.00 | 0.00 | 0.00 | 37 | 1000.8 |
| 20260504182508 | 60 | 249 | 13.0 | 22.6 | 0.00 | 0.00 | 0.00 | 36 | 1000.7 |
| 20260504182003 | 60 | 273 | 8.7 | 21.7 | 0.00 | 0.00 | 0.00 | 36 | 1000.7 |
| 20260504181510 | 61 | 284 | 10.4 | 25.2 | 0.00 | 0.00 | 0.00 | 36 | 1000.4 |
| 20260504181008 | 60 | 317 | 13.9 | 27.8 | 0.00 | 0.00 | 0.00 | 35 | 1000.3 |
| 20260504180502 | 61 | 273 | 12.2 | 27.8 | 0.00 | 0.00 | 0.00 | 35 | 1000.2 |
| 20260504180008 | 62 | 275 | 16.5 | 26.9 | 0.00 | 0.00 | 0.00 | 36 | 1000.1 |
| 20260504175503 | 63 | 312 | 13.0 | 22.6 | 0.00 | 0.00 | 0.00 | 37 | 999.9 |
| 20260504175006 | 63 | 301 | 8.7 | 21.7 | 0.00 | 0.00 | 0.00 | 41 | 999.8 |
| 20260504174514 | 62 | 310 | 9.6 | 21.7 | 0.00 | 0.00 | 0.00 | 40 | 999.9 |
| 20260504174003 | 63 | 265 | 12.2 | 23.5 | 0.00 | 0.00 | 0.00 | 37 | 999.8 |
| 20260504173504 | 62 | 266 | 9.6 | 23.5 | 0.00 | 0.00 | 0.00 | 37 | 999.7 |
| 20260504173020 | 63 | 342 | 14.8 | 22.6 | 0.00 | 0.00 | 0.00 | 38 | 999.9 |
| 20260504172503 | 63 | 243 | 11.3 | 20.9 | 0.00 | 0.00 | 0.00 | 39 | 999.7 |
| 20260504172004 | 63 | 261 | 8.7 | 25.2 | 0.00 | 0.00 | 0.00 | 40 | 999.7 |
| 20260504171520 | 62 | 225 | 11.3 | 25.2 | 0.00 | 0.00 | 0.00 | 45 | 999.6 |
| 20260504171007 | 62 | 309 | 12.2 | 28.7 | 0.00 | 0.00 | 0.00 | 43 | 999.8 |
| 20260504170505 | 62 | 254 | 15.6 | 28.7 | 0.00 | 0.00 | 0.00 | 40 | 999.7 |